KS8S Weather Reports


Display with metric or nautical units.
time (UTC)temp
F
wind
direction
speed
MPH
gust
MPH
rain 1hr
in
rain 24hr
in
rain mn
in
humidity
%
barometer
mb
20260504081526 50 195 9.0 15.0 0.00 0.00 0.00 70 1007.8
20260504050021 51 188 10.0 17.0 0.00 0.00 0.00 63 1010.0
20260504044522 51 192 10.0 15.0 0.00 0.00 0.00 63 1010.1
20260504043013 52 186 10.0 14.0 0.00 0.00 0.00 62 1010.2
20260504041509 51 188 10.0 15.0 0.00 0.00 0.00 63 1010.3
20260504040008 51 187 9.0 16.0 0.00 0.00 0.00 65 1010.4
20260504034506 51 175 11.0 17.0 0.00 0.00 0.00 66 1010.6
20260504033024 50 173 11.0 17.0 0.00 0.00 0.00 68 1010.7
20260504031522 50 171 10.0 12.0 0.00 0.00 0.00 70 1010.7
20260504030036 49 171 9.0 12.0 0.00 0.00 0.00 72 1010.9
20260504024517 49 171 10.0 14.0 0.00 0.00 0.00 72 1011.0
20260504023010 49 192 8.0 14.0 0.00 0.00 0.00 72 1011.1
20260504021509 49 162 10.0 17.0 0.00 0.00 0.00 71 1011.2
20260504020025 49 172 8.0 12.0 0.00 0.00 0.00 74 1011.3
20260504014534 49 169 8.0 12.0 0.00 0.00 0.00 73 1011.2
20260504013020 48 153 8.0 10.0 0.00 0.00 0.00 73 1011.2
20260504011519 48 171 6.0 9.0 0.00 0.00 0.00 74 1011.3
20260504010019 49 171 7.0 10.0 0.00 0.00 0.00 72 1011.3
20260504004512 50 177 7.0 10.0 0.00 0.00 0.00 70 1011.5
20260504003031 50 189 4.0 6.0 0.00 0.00 0.00 71 1011.6
20260504001524 51 190 5.0 7.0 0.00 0.00 0.00 69 1011.6
20260504000024 51 197 5.0 8.0 0.00 0.00 0.00 69 1011.6
20260503234535 51 221 7.0 11.0 0.00 0.00 0.00 67 1011.8
20260503233018 51 207 8.0 14.0 0.00 0.00 0.00 65 1012.0
20260503231516 52 236 12.0 20.0 0.00 0.00 0.00 64 1012.3
20260503230026 52 225 15.0 22.0 0.00 0.00 0.00 63 1012.4
20260503224526 53 227 20.0 26.0 0.00 0.00 0.00 62 1012.5
20260503223025 53 240 21.0 31.0 0.00 0.00 0.00 60 1012.5
20260503221523 55 253 22.0 32.0 0.00 0.00 0.00 60 1012.4
20260503220024 56 246 20.0 31.0 0.00 0.00 0.00 58 1012.2
20260503214518 57 246 27.0 36.0 0.00 0.00 0.00 52 1012.1
20260503213018 59 217 21.0 29.0 0.00 0.00 0.00 40 1011.9
20260503211516 60 239 20.0 27.0 0.00 0.00 0.00 41 1012.0
20260503210028 60 238 19.0 30.0 0.00 0.00 0.00 40 1012.1
20260503204510 60 223 19.0 27.0 0.00 0.00 0.00 38 1012.2
20260503203004 61 238 19.0 29.0 0.00 0.00 0.00 39 1012.3
20260503201523 61 243 19.0 26.0 0.00 0.00 0.00 39 1012.5
20260503200020 61 222 23.0 30.0 0.00 0.00 0.00 36 1012.9
20260503194516 61 235 21.0 29.0 0.00 0.00 0.00 36 1012.9
20260503193013 60 238 19.0 24.0 0.00 0.00 0.00 37 1013.2
20260503191510 61 234 20.0 27.0 0.00 0.00 0.00 36 1013.3
20260503190009 60 230 22.0 29.0 0.00 0.00 0.00 36 1013.6
20260503184535 61 229 20.0 28.0 0.00 0.00 0.00 37 1013.7
20260503183024 61 243 22.0 26.0 0.00 0.00 0.00 39 1013.9
20260503181522 60 238 20.0 29.0 0.00 0.00 0.00 37 1014.0
20260503180024 60 225 21.0 32.0 0.00 0.00 0.00 36 1014.4
20260503174515 60 246 22.0 29.0 0.00 0.00 0.00 39 1014.4
20260503173015 60 249 19.0 28.0 0.00 0.00 0.00 42 1014.7
20260503171524 60 217 23.0 30.0 0.00 0.00 0.00 38 1014.9